FW6662 Weather Reports


Display with metric or nautical units.
time (UTC)temp
F
wind
direction
speed
MPH
gust
MPH
rain 1hr
in
rain 24hr
in
rain mn
in
humidity
%
barometer
mb
20260903074503 65 183 1.0 6.0 0.01 0.99 0.17 100 1017.0
20260903074024 65 185 1.0 6.0 0.02 0.99 0.17 100 1016.6
20260903073503 65 203 1.0 4.0 0.04 0.99 0.17 100 1016.8
20260903073003 65 206 1.0 6.0 0.05 0.99 0.17 100 1016.9
20260903072524 65 198 3.0 9.0 0.07 0.99 0.17 100 1016.6
20260903072003 65 177 1.0 9.0 0.09 0.99 0.17 100 1016.6
20260903071503 65 163 1.0 6.0 0.10 0.99 0.17 100 1016.4
20260903071003 65 189 1.0 4.0 0.11 0.99 0.17 100 1016.7
20260903070503 65 181 1.0 7.0 0.13 0.99 0.17 99 1016.4
20260903070003 65 179 3.0 7.0 0.13 0.99 0.17 99 1016.4
20260903065503 65 173 1.0 6.0 0.14 0.99 0.17 99 1016.4
20260903065003 65 166 3.0 7.0 0.13 0.98 0.16 99 1016.5
20260903064503 65 167 3.0 7.0 0.13 0.98 0.16 99 1016.7
20260903064024 65 165 3.0 6.0 0.12 0.97 0.15 100 1016.9
20260903063524 65 162 1.0 6.0 0.10 0.95 0.13 100 1017.3
20260903063003 65 157 1.0 6.0 0.09 0.94 0.12 99 1017.8
20260903062503 65 158 1.0 6.0 0.07 0.92 0.10 99 1017.9
20260903062003 65 162 1.0 4.0 0.05 0.90 0.08 99 1018.2
20260903061503 65 170 1.0 6.0 0.04 0.89 0.07 99 1018.6
20260903061003 65 192 1.0 6.0 0.03 0.88 0.06 99 1018.8
20260903060503 65 225 1.0 3.0 0.02 0.86 0.04 99 1019.0
20260903060003 65 225 1.0 10.0 0.03 0.86 0.04 99 1019.0
20260903055503 65 202 1.0 10.0 0.02 0.85 0.03 99 1018.7
20260903055024 65 180 1.0 10.0 0.02 0.85 0.03 99 1018.3
20260903054524 65 185 1.0 3.0 0.02 0.85 0.03 99 1018.1
20260903054003 65 185 1.0 3.0 0.02 0.85 0.03 99 1018.2
20260903053503 65 185 1.0 3.0 0.03 0.85 0.03 99 1018.2
20260903053003 65 185 0.0 1.0 0.03 0.85 0.03 99 1018.3
20260903052503 65 181 1.0 3.0 0.03 0.85 0.03 99 1018.3
20260903052003 65 173 1.0 3.0 0.03 0.85 0.03 99 1018.1
20260903051524 65 169 1.0 6.0 0.03 0.85 0.03 99 1018.3
20260903051024 65 174 1.0 6.0 0.03 0.85 0.03 99 1018.4
20260903050503 66 179 1.0 4.0 0.02 0.84 0.02 99 1018.5
20260903050003 66 181 0.0 1.0 0.01 0.83 0.01 99 1018.9
20260903045503 66 181 0.0 3.0 0.01 0.83 0.01 99 1019.1
20260903045003 66 181 1.0 3.0 0.01 0.83 0.01 99 1019.4
20260903044503 66 181 1.0 3.0 0.01 0.83 0.01 99 1019.3
20260903044003 66 181 1.0 3.0 0.01 0.83 0.01 99 1019.8
20260903043503 66 181 1.0 3.0 0.00 0.82 0.00 99 1019.9
20260903043024 66 180 0.0 3.0 0.00 0.82 0.00 99 1020.0
20260903042503 66 143 0.0 1.0 0.01 0.82 0.00 99 1019.9
20260903042003 66 126 0.0 1.0 0.01 0.82 0.00 99 1019.6
20260903041503 66 160 0.0 3.0 0.02 0.82 0.00 99 1019.5
20260903041003 66 161 1.0 3.0 0.03 0.82 0.00 99 1019.4
20260903040503 66 169 1.0 3.0 0.04 0.82 0.00 99 1019.2
20260903040004 66 175 1.0 3.0 0.04 0.82 0.00 98 1019.1
20260903035505 66 163 1.0 9.0 0.05 0.82 0.82 98 1019.0
20260903035026 66 156 1.0 9.0 0.06 0.82 0.82 98 1019.0
20260903034505 66 160 3.0 6.0 0.09 0.82 0.82 98 1019.3
20260903034005 67 173 1.0 6.0 0.22 0.82 0.82 99 1019.7
20260903033505 67 172 1.0 9.0 0.55 0.82 0.82 99 1019.9
20260903033005 67 158 1.0 9.0 0.74 0.82 0.82 98 1019.8
20260903032505 67 132 1.0 4.0 0.81 0.81 0.81 98 1019.9
20260903032005 67 106 1.0 4.0 0.81 0.81 0.81 98 1019.6
20260903031505 68 124 1.0 4.0 0.80 0.80 0.80 99 1019.5
20260903031026 68 147 1.0 4.0 0.79 0.79 0.79 99 1020.4
20260903030505 68 144 1.0 4.0 0.78 0.78 0.78 98 1020.6
20260903030005 68 53 1.0 6.0 0.78 0.78 0.78 98 1020.6
20260903025505 68 317 3.0 10.0 0.77 0.77 0.77 98 1021.0
20260903025005 68 253 3.0 10.0 0.76 0.76 0.76 98 1021.2
20260903024505 68 279 1.0 7.0 0.73 0.73 0.73 98 1021.6
20260903024005 68 58 3.0 13.0 0.60 0.60 0.60 97 1021.4
20260903023505 68 316 4.0 13.0 0.27 0.27 0.27 97 1021.2
20260903023005 68 323 3.0 12.0 0.08 0.08 0.08 97 1021.3
20260903022504 68 247 1.0 6.0 0.00 0.00 0.00 96 1019.8
20260903022005 68 165 1.0 6.0 0.00 0.00 0.00 96 1019.0
20260903021505 68 161 1.0 7.0 0.00 0.00 0.00 96 1019.1
20260903021005 68 171 3.0 12.0 0.00 0.00 0.00 96 1019.4
20260903020505 68 167 3.0 12.0 0.00 0.00 0.00 96 1019.3
20260903020005 68 160 3.0 12.0 0.00 0.00 0.00 96 1018.8
20260903015526 68 159 3.0 9.0 0.00 0.00 0.00 96 1019.0
20260903015005 68 160 3.0 9.0 0.00 0.00 0.00 96 1019.2
20260903014505 68 167 3.0 13.0 0.00 0.00 0.00 96 1019.5
20260903014005 68 167 4.0 14.0 0.00 0.00 0.00 96 1019.1
20260903013526 68 165 4.0 14.0 0.00 0.00 0.00 96 1019.1
20260903013005 69 166 3.0 12.0 0.00 0.00 0.00 96 1019.3
20260903012505 69 169 3.0 12.0 0.00 0.00 0.00 96 1019.9
20260903012005 69 170 3.0 9.0 0.00 0.00 0.00 96 1019.6
20260903011504 69 168 3.0 9.0 0.00 0.00 0.00 96 1020.0
20260903011004 69 170 1.0 7.0 0.00 0.00 0.00 96 1019.9
20260903010504 69 171 3.0 7.0 0.00 0.00 0.00 96 1019.5
20260903010025 69 163 3.0 10.0 0.00 0.00 0.00 95 1019.1
20260903005504 69 162 4.0 16.0 0.00 0.00 0.00 95 1018.7
20260903005005 69 160 3.0 16.0 0.00 0.00 0.00 96 1018.4
20260903004504 69 158 3.0 7.0 0.00 0.00 0.00 96 1018.1
20260903004005 69 165 3.0 7.0 0.00 0.00 0.00 96 1018.3
20260903003525 69 164 3.0 12.0 0.00 0.00 0.00 96 1018.6
20260903003005 69 162 3.0 12.0 0.00 0.00 0.00 96 1018.7
20260903002504 69 163 1.0 6.0 0.00 0.00 0.00 96 1018.8
20260903002005 69 162 1.0 6.0 0.00 0.00 0.00 96 1019.0
20260903001504 69 169 1.0 7.0 0.00 0.00 0.00 96 1019.2
20260903001004 69 169 3.0 9.0 0.00 0.00 0.00 95 1019.0
20260903000504 69 170 3.0 9.0 0.00 0.00 0.00 95 1018.7
20260903000005 69 172 1.0 7.0 0.00 0.00 0.00 95 1018.7
20260902235504 69 165 1.0 6.0 0.00 0.00 0.00 96 1018.8
20260902235005 70 157 1.0 6.0 0.00 0.00 0.00 95 1019.0
20260902234504 70 155 1.0 6.0 0.00 0.00 0.00 96 1019.1
20260902234005 70 172 3.0 12.0 0.00 0.00 0.00 96 1018.7
20260902233504 70 167 3.0 12.0 0.00 0.00 0.00 96 1018.4
20260902233004 70 161 3.0 9.0 0.00 0.00 0.00 96 1018.2
20260902232504 70 167 3.0 10.0 0.00 0.00 0.00 96 1018.3
20260902232026 70 167 3.0 10.0 0.00 0.00 0.00 96 1018.3
20260902231504 70 166 3.0 7.0 0.00 0.00 0.00 96 1018.1
20260902231026 70 160 3.0 7.0 0.00 0.00 0.00 96 1018.1
20260902230526 70 165 3.0 7.0 0.00 0.00 0.00 96 1018.4
20260902230004 70 169 1.0 6.0 0.00 0.00 0.00 96 1018.5
20260902225504 70 167 3.0 9.0 0.00 0.00 0.00 95 1018.6
20260902225005 70 165 3.0 9.0 0.00 0.00 0.00 95 1018.8
20260902224504 70 161 3.0 7.0 0.00 0.00 0.00 96 1018.6
20260902224004 70 161 3.0 9.0 0.00 0.00 0.00 96 1018.5
20260902223504 70 161 3.0 10.0 0.00 0.00 0.00 96 1018.7
20260902223004 70 159 1.0 10.0 0.00 0.00 0.00 96 1018.7
20260902222505 70 157 1.0 4.0 0.00 0.00 0.00 96 1018.7
20260902222005 70 160 1.0 6.0 0.00 0.00 0.00 95 1018.7
20260902221504 71 167 1.0 6.0 0.00 0.00 0.00 95 1018.8
20260902221025 71 165 3.0 14.0 0.00 0.00 0.00 95 1018.8
20260902220504 71 160 3.0 14.0 0.00 0.00 0.00 95 1018.9
20260902220004 71 166 3.0 7.0 0.00 0.00 0.00 95 1018.9
20260902215525 71 169 1.0 7.0 0.00 0.00 0.00 95 1019.0
20260902215025 71 163 1.0 7.0 0.00 0.00 0.00 95 1019.1
20260902214504 71 158 1.0 10.0 0.00 0.00 0.00 96 1019.1
20260902214004 71 161 1.0 10.0 0.00 0.00 0.00 96 1019.1
20260902213504 71 162 1.0 7.0 0.00 0.00 0.00 96 1019.2
20260902213004 71 155 1.0 7.0 0.00 0.00 0.00 95 1019.1
20260902212504 71 157 1.0 7.0 0.00 0.00 0.00 95 1019.2
20260902212004 71 160 1.0 9.0 0.00 0.00 0.00 95 1019.2
20260902211504 71 160 3.0 9.0 0.00 0.00 0.00 96 1019.1
20260902211004 71 164 1.0 9.0 0.00 0.00 0.00 95 1019.2
20260902210504 71 157 1.0 9.0 0.00 0.00 0.00 95 1019.1
20260902210004 71 156 1.0 6.0 0.00 0.00 0.00 95 1019.0
20260902205504 71 153 1.0 4.0 0.00 0.00 0.00 95 1019.0
20260902205004 71 146 1.0 6.0 0.00 0.00 0.00 95 1018.8
20260902204504 71 162 3.0 7.0 0.00 0.00 0.00 95 1018.9
20260902204004 71 178 3.0 7.0 0.00 0.00 0.00 96 1019.0
20260902203504 70 169 1.0 9.0 0.00 0.00 0.00 96 1019.1
20260902203004 70 154 1.0 9.0 0.00 0.00 0.00 96 1019.1
20260902202504 70 164 1.0 4.0 0.00 0.00 0.00 96 1019.2
20260902202025 70 159 1.0 4.0 0.00 0.00 0.00 96 1019.3
20260902201504 70 146 1.0 4.0 0.00 0.00 0.00 95 1019.7
20260902201004 70 146 1.0 3.0 0.00 0.00 0.00 95 1019.7
20260902200504 70 142 1.0 6.0 0.00 0.00 0.00 95 1019.9
20260902200025 71 134 1.0 6.0 0.00 0.00 0.00 95 1019.9
20260902195504 71 144 0.0 6.0 0.00 0.00 0.00 95 1019.9
20260902195004 71 166 1.0 7.0 0.00 0.00 0.00 95 1019.8
20260902194504 71 163 3.0 7.0 0.00 0.00 0.00 95 1019.9
20260902194004 71 157 3.0 9.0 0.00 0.00 0.00 95 1019.8
20260902193504 71 156 3.0 9.0 0.00 0.00 0.00 95 1019.7
20260902193004 71 161 1.0 7.0 0.00 0.00 0.00 96 1019.8
20260902192504 71 164 1.0 7.0 0.00 0.00 0.00 95 1019.7
20260902192004 70 170 1.0 7.0 0.00 0.00 0.00 96 1019.7
20260902191504 70 177 1.0 6.0 0.00 0.00 0.00 96 1019.8
20260902191004 70 174 1.0 6.0 0.00 0.00 0.00 96 1019.8
20260902190504 70 173 1.0 6.0 0.00 0.00 0.00 96 1019.8
20260902190025 70 171 1.0 9.0 0.00 0.00 0.00 96 1019.8
20260902185504 70 170 1.0 9.0 0.00 0.00 0.00 96 1019.6
20260902185004 70 167 1.0 7.0 0.00 0.00 0.00 96 1019.6
20260902184504 70 166 1.0 12.0 0.00 0.00 0.00 95 1019.8
20260902184004 70 164 3.0 12.0 0.00 0.00 0.00 96 1019.9
20260902183504 70 161 3.0 13.0 0.00 0.00 0.00 96 1019.8
20260902183004 70 163 3.0 13.0 0.00 0.00 0.00 96 1019.9
20260902182504 70 161 1.0 7.0 0.00 0.00 0.00 97 1020.0
20260902182025 70 165 1.0 4.0 0.00 0.00 0.00 97 1020.2
20260902181504 70 171 3.0 7.0 0.00 0.00 0.00 97 1020.4
20260902181004 70 170 3.0 9.0 0.00 0.00 0.00 96 1020.5
20260902180504 70 164 3.0 9.0 0.00 0.00 0.00 96 1020.6
20260902180006 70 157 3.0 7.0 0.00 0.00 0.00 96 1020.7
20260902175525 70 163 3.0 9.0 0.00 0.00 0.00 97 1020.8
20260902175004 70 164 3.0 9.0 0.00 0.00 0.00 96 1020.9
20260902174525 70 160 3.0 10.0 0.00 0.00 0.00 96 1020.9
20260902174025 70 159 3.0 10.0 0.00 0.00 0.00 96 1020.9
20260902173504 70 167 3.0 10.0 0.00 0.00 0.00 96 1021.1
20260902173004 70 164 3.0 10.0 0.00 0.00 0.00 96 1021.1
20260902172525 70 162 3.0 7.0 0.00 0.00 0.00 96 1020.9
20260902172004 70 167 3.0 7.0 0.00 0.00 0.00 97 1021.0
20260902171525 70 167 3.0 13.0 0.00 0.00 0.00 97 1021.1
20260902171004 70 164 3.0 13.0 0.00 0.00 0.00 97 1020.9
20260902170504 70 162 1.0 7.0 0.00 0.00 0.00 97 1021.0
20260902170004 70 166 1.0 7.0 0.00 0.00 0.00 97 1020.9
20260902165504 70 165 3.0 7.0 0.00 0.00 0.00 97 1020.9
20260902165004 70 169 3.0 7.0 0.00 0.00 0.00 97 1020.9
20260902164504 70 176 1.0 4.0 0.00 0.00 0.00 98 1020.9
20260902164004 70 171 1.0 7.0 0.00 0.00 0.00 98 1020.6
20260902163504 70 172 1.0 7.0 0.00 0.00 0.00 97 1020.7
20260902163004 70 175 3.0 9.0 0.00 0.00 0.00 97 1020.6
20260902162504 70 171 3.0 9.0 0.00 0.00 0.00 98 1020.4
20260902162004 70 167 3.0 10.0 0.00 0.00 0.00 97 1020.3
20260902161504 70 167 3.0 10.0 0.00 0.00 0.00 98 1020.6
20260902161025 70 164 3.0 6.0 0.00 0.00 0.00 98 1020.7
20260902160504 70 169 1.0 6.0 0.00 0.00 0.00 98 1020.9
20260902160006 70 167 1.0 7.0 0.00 0.00 0.00 98 1021.0
20260902155504 70 173 1.0 7.0 0.00 0.00 0.00 98 1020.9
20260902155004 70 195 1.0 6.0 0.00 0.00 0.00 97 1020.9
20260902154504 70 183 1.0 9.0 0.00 0.00 0.00 97 1021.1
20260902154004 70 164 3.0 9.0 0.00 0.00 0.00 97 1020.9
20260902153504 70 167 3.0 9.0 0.00 0.00 0.00 97 1020.7
20260902153004 70 169 4.0 13.0 0.00 0.00 0.00 97 1020.7
20260902152504 70 172 3.0 13.0 0.00 0.00 0.00 97 1020.6
20260902152004 70 172 1.0 9.0 0.00 0.00 0.00 98 1020.7
20260902151504 70 162 3.0 9.0 0.00 0.00 0.00 97 1020.7
20260902151004 70 158 3.0 7.0 0.00 0.00 0.00 98 1020.6
20260902150504 70 161 1.0 6.0 0.00 0.00 0.00 98 1020.5
20260902150004 70 166 3.0 9.0 0.00 0.00 0.00 98 1020.6
20260902145525 70 167 3.0 9.0 0.00 0.00 0.00 98 1020.6
20260902145004 70 165 3.0 6.0 0.00 0.00 0.00 98 1020.6
20260902144504 70 161 1.0 6.0 0.00 0.00 0.00 98 1020.7
20260902144004 70 160 1.0 6.0 0.00 0.00 0.00 98 1020.8
20260902143504 70 167 1.0 6.0 0.00 0.00 0.00 98 1021.0
20260902143004 70 165 3.0 7.0 0.00 0.00 0.00 98 1021.0
20260902142504 70 170 1.0 7.0 0.00 0.00 0.00 98 1021.0
20260902142025 70 167 1.0 6.0 0.00 0.00 0.00 99 1021.1
20260902141504 70 159 1.0 4.0 0.00 0.00 0.00 99 1021.1
20260902141025 70 156 1.0 4.0 0.00 0.00 0.00 99 1021.0
20260902140504 70 155 3.0 7.0 0.00 0.00 0.00 99 1021.1
20260902140004 70 161 3.0 7.0 0.00 0.00 0.00 99 1021.0
20260902135504 70 168 3.0 7.0 0.00 0.00 0.00 99 1020.9
20260902135004 70 165 1.0 7.0 0.00 0.00 0.00 99 1020.9
20260902134525 70 156 1.0 4.0 0.00 0.00 0.00 99 1021.0
20260902134004 70 156 1.0 4.0 0.00 0.00 0.00 99 1021.0
20260902133504 71 153 1.0 6.0 0.00 0.00 0.00 99 1020.8
20260902133004 70 153 3.0 6.0 0.00 0.00 0.00 99 1020.8
20260902132504 70 160 3.0 6.0 0.00 0.00 0.00 99 1020.7
20260902132004 71 163 3.0 6.0 0.00 0.00 0.00 100 1020.7
20260902131503 71 163 1.0 6.0 0.00 0.00 0.00 100 1020.6
20260902131004 70 167 1.0 9.0 0.00 0.00 0.00 100 1020.7
20260902130504 71 167 3.0 9.0 0.00 0.03 0.00 100 1020.5
20260902130025 71 166 3.0 9.0 0.00 0.04 0.00 100 1020.3
20260902125503 71 164 3.0 9.0 0.00 0.08 0.00 100 1020.2
20260902125004 71 168 3.0 7.0 0.00 0.09 0.00 100 1020.3
20260902124504 70 169 1.0 6.0 0.00 0.09 0.00 100 1020.1
20260902124004 70 166 1.0 6.0 0.00 0.09 0.00 100 1020.0
20260902123525 70 169 3.0 6.0 0.00 0.09 0.00 100 1020.0
20260902123004 70 171 1.0 6.0 0.00 0.09 0.00 100 1019.9
20260902122525 70 177 1.0 6.0 0.00 0.09 0.00 100 1019.7
20260902122004 70 185 1.0 3.0 0.00 0.09 0.00 100 1019.8
20260902121504 70 185 0.0 3.0 0.00 0.09 0.00 100 1019.8
20260902121004 70 185 0.0 3.0 0.00 0.09 0.00 100 1019.7
20260902120503 70 185 0.0 1.0 0.00 0.10 0.00 100 1019.7
20260902120004 70 185 0.0 1.0 0.00 0.10 0.00 100 1019.9
20260902115504 70 185 0.0 1.0 0.00 0.10 0.00 100 1019.9
20260902115004 70 185 0.0 1.0 0.00 0.10 0.00 100 1019.9
20260902114503 70 185 0.0 1.0 0.00 0.10 0.00 100 1020.0
20260902114004 70 185 1.0 1.0 0.00 0.10 0.00 100 1019.9
20260902113503 70 185 0.0 1.0 0.00 0.10 0.00 100 1019.9
20260902113025 70 185 0.0 3.0 0.00 0.10 0.00 100 1020.0
20260902112503 70 185 1.0 3.0 0.00 0.10 0.00 100 1019.8
20260902112003 70 185 0.0 3.0 0.00 0.10 0.00 100 1019.8
20260902111503 70 185 0.0 1.0 0.00 0.10 0.00 100 1019.9
20260902111004 70 185 0.0 1.0 0.00 0.10 0.00 100 1019.8
20260902110503 70 185 0.0 1.0 0.00 0.10 0.00 100 1019.8
20260902110024 70 185 1.0 3.0 0.00 0.10 0.00 100 1019.9
20260902105504 70 185 1.0 3.0 0.00 0.10 0.00 100 1019.9
20260902105004 70 185 1.0 3.0 0.00 0.10 0.00 100 1019.9
20260902104504 70 180 0.0 3.0 0.00 0.10 0.00 100 1019.9
20260902104024 70 163 0.0 1.0 0.00 0.10 0.00 100 1019.9
20260902103503 70 158 0.0 3.0 0.00 0.10 0.00 100 1019.9
20260902103003 69 172 0.0 6.0 0.00 0.10 0.00 100 1020.1
20260902102503 69 181 0.0 6.0 0.00 0.10 0.00 100 1020.0
20260902102004 69 184 0.0 1.0 0.00 0.10 0.00 100 1020.0
20260902101503 69 184 0.0 1.0 0.00 0.10 0.00 100 1019.9
20260902101025 69 184 0.0 1.0 0.00 0.10 0.00 100 1019.8
20260902100503 69 184 0.0 1.0 0.00 0.10 0.00 100 1019.7
20260902100004 70 184 0.0 1.0 0.00 0.10 0.00 100 1019.6
20260902095503 70 184 0.0 1.0 0.00 0.10 0.00 100 1019.7
20260902095003 70 184 0.0 3.0 0.00 0.10 0.00 100 1019.5
20260902094503 70 184 0.0 3.0 0.00 0.10 0.00 100 1019.5
20260902094024 70 184 0.0 1.0 0.00 0.10 0.00 100 1019.5
20260902093503 70 184 0.0 1.0 0.00 0.11 0.00 100 1019.5
20260902093003 70 184 0.0 1.0 0.00 0.11 0.00 100 1019.4
20260902092503 70 184 0.0 1.0 0.00 0.11 0.00 100 1019.5
20260902092003 70 184 0.0 1.0 0.00 0.11 0.00 100 1019.3
20260902091503 69 184 0.0 1.0 0.00 0.11 0.00 100 1019.4
20260902091003 69 184 0.0 1.0 0.00 0.11 0.00 100 1019.4
20260902090524 70 184 0.0 1.0 0.00 0.11 0.00 100 1019.4
20260902090004 70 184 0.0 1.0 0.00 0.11 0.00 100 1019.3
20260902085503 70 184 0.0 1.0 0.00 0.11 0.00 100 1019.4
20260902085003 70 184 0.0 1.0 0.00 0.11 0.00 100 1019.4
20260902084524 70 184 0.0 1.0 0.00 0.11 0.00 100 1019.5
20260902084003 69 184 0.0 1.0 0.00 0.11 0.00 100 1019.5
20260902083503 69 184 0.0 1.0 0.00 0.11 0.00 100 1019.4
20260902083003 69 184 0.0 1.0 0.00 0.11 0.00 100 1019.3
20260902082503 69 0 0.0 0.0 0.00 0.11 0.00 99 1019.3
20260902082003 69 149 0.0 6.0 0.00 0.11 0.00 99 1019.3
20260902081503 69 149 0.0 6.0 0.00 0.11 0.00 99 1019.1
20260902081003 69 147 0.0 1.0 0.00 0.11 0.00 99 1019.0
20260902080503 69 147 0.0 1.0 0.00 0.11 0.00 99 1019.1
20260902080003 69 147 0.0 1.0 0.00 0.11 0.00 99 1019.1
20260902075503 69 147 0.0 1.0 0.00 0.11 0.00 99 1019.1
20260902075003 69 147 0.0 1.0 0.00 0.11 0.00 99 1019.1